Location: Unspecified
(42.2730°N, 83.7130°W)
Time: 22:49:54
(UTC+00:00)

Cosmos 2058 Rocket - Visible Passes

Search period start: 12 March 2026 00:00
Search period end: 22 March 2026 00:00
Orbit: 605 x 631 km, 82.5° (Epoch: 12 March)

Date Brightness Start Highest point End Pass type
(mag) Time Alt. Az. Time Alt. Az. Time Alt. Az.
12 Mar 5.2 00:04:30 10° NNW 00:08:33 34° W 00:12:32 10° SSW visible
12 Mar 6.7 11:00:34 10° ESE 11:02:37 13° E 11:04:40 10° NE visible
13 Mar 6.3 00:22:13 10° NW 00:25:21 19° W 00:28:29 10° SW visible
13 Mar 6.0 11:15:52 10° SE 11:19:22 24° E 11:22:54 10° NE visible
14 Mar 7.1 00:41:26 10° WNW 00:42:04 10° W 00:42:42 10° W visible
16 Mar 6.5 10:30:43 10° ESE 10:32:52 13° E 10:35:01 10° NE visible
17 Mar 5.8 10:46:04 10° SE 10:49:37 24° E 10:53:12 10° NE visible
18 Mar 4.5 11:02:16 10° SSE 11:06:27 44° E 11:10:42 10° NNE visible
20 Mar 6.3 10:00:51 10° ESE 10:03:06 14° E 10:05:22 10° NE visible
21 Mar 5.6 10:16:15 10° SE 10:19:51 25° E 10:23:29 10° NE visible
